[[{"header":{"parameterUnit":"m.s-1","parameterCategory":1,"la1":30.2991,"la2":30.254,"lo1":-89.0895,"lo2":-89.0444,"dy":0.0017,"dx":0.0017,"nx":28,"ny":28,"refTime":"2024-09-29T03:00:00:Z","depth":0,"parameterNumber":2,"parameterNumberName":"U-component_of_WINDS"},"data":[0,0,0,0,0,0,0,0,0,0,0,0,0,0,0,0,0,0,0,0,0,0,0,0,0,0,0,0,0,0,0,0,0,0,0,0,0,0,0,0,0,0,0,0,0,0,0,0,0,0,0,0,0,0,0,0,0,0,2.4962,2.4963,0,2.4993,2.4994,2.4994,2.5005,2.5005,2.5005,2.5005,2.5039,2.504,2.5041,0,0,0,0,0,0,0,0,0,0,0,0,0,2.4916,2.4917,2.4962,2.4963,2.4963,2.4993,2.4994,2.4994,2.5005,2.5005,2.5005,2.5005,2.5038,2.5039,2.5041,0,0,0,0,0,0,0,0,0,0,0,0,0,2.4941,2.4917,2.4962,2.4972,2.4973,2.4993,2.4994,2.4994,2.5005,2.5005,2.5005,2.5005,2.5038,2.5039,2.5041,2.5053,0,0,2.5045,2.5046,0,0,0,0,0,0,0,0,2.4939,2.4943,2.497,2.4972,2.4973,2.4995,2.499,2.5014,2.5006,2.4993,2.5005,2.5005,2.5024,2.5027,2.5033,2.5055,2.5056,2.5045,2.5046,2.5047,2.5047,0,0,0,0,0,0,0,2.4938,2.4941,2.4975,2.4971,2.4972,2.4977,2.498,2.4995,2.501,2.4994,2.4995,2.4999,2.5025,2.5032,2.5034,2.5057,2.5045,2.5047,2.5048,2.5048,2.5094,2.5094,0,0,0,0,0,0,2.4934,2.494,2.4974,2.4976,2.4955,2.4977,2.4981,2.4988,2.5009,2.5012,2.4999,2.4999,2.5029,2.5032,2.5035,2.5053,2.5047,2.5048,2.5049,2.5094,2.5094,2.5095,0,0,0,0,0,0,2.4933,2.4937,2.4972,2.4958,2.4963,2.4978,2.4986,2.4989,2.4996,2.5013,2.5016,2.5003,2.5029,2.5033,2.5049,2.5055,2.5049,2.505,2.5093,2.5094,2.5094,2.5088,0,0,0,0,0,0,2.4932,2.4936,2.494,2.4958,2.4964,2.4985,2.4987,2.499,2.4998,2.4999,2.5017,2.502,2.503,2.5047,2.5051,2.5056,2.5052,2.5093,2.5094,2.5094,2.5088,2.5088,2.5089,0,0,0,0,0,2.493,2.4937,2.494,2.4944,2.4968,2.4985,2.4988,2.4998,2.4998,2.5003,2.5015,2.5019,2.5054,2.5049,2.5053,2.5059,2.5093,2.5093,2.5094,2.5088,2.5088,2.5089,0,0,0,0,0,0,2.4919,2.4939,2.4943,2.4956,2.4969,2.4987,2.4993,2.4998,2.5011,2.5012,2.5025,2.5029,2.5044,2.5054,2.5048,2.5074,2.5074,2.5075,2.5067,2.5068,2.5068,2.5066,2.5053,0,0,0,0,0,2.4918,2.4929,2.4946,2.4956,2.4962,2.4977,2.4984,2.4991,2.5005,2.501,2.5023,2.5037,2.5051,2.506,2.5074,2.509,2.5095,2.5097,2.5097,2.5097,2.5098,2.511,2.5111,2.5097,2.5097,2.5097,0,0,2.4916,2.4929,2.4934,2.4954,2.4965,2.4977,2.4981,2.4993,2.5003,2.5012,2.5029,2.5039,2.5056,2.5072,2.508,2.508,2.5104,2.5098,2.5098,2.5099,2.5111,2.5112,2.5113,2.5097,2.5097,2.5097,0,0,2.4919,2.4929,2.4939,2.495,2.4966,2.4976,2.4979,2.4997,2.5004,2.5021,2.5029,2.5042,2.5065,2.5078,2.5087,2.5099,2.5104,2.5103,2.5105,2.5116,2.5117,2.5118,2.5123,2.5125,2.5104,2.5104,2.5104,0,2.4914,2.4932,2.4943,2.4956,2.4965,2.4976,2.4987,2.4998,2.5018,2.5025,2.5025,2.5057,2.5069,2.5089,2.5093,2.5099,2.5104,2.51,2.5116,2.5117,2.5118,2.5124,2.5125,2.5104,2.5104,2.5104,2.5104,0,2.4927,2.4939,2.4946,2.4965,2.4976,2.4987,2.5002,2.5012,2.5019,2.503,2.5048,2.5064,2.5082,2.5088,2.5094,2.511,2.511,2.5113,2.5113,2.5119,2.5124,2.5126,2.5104,2.5104,2.5104,2.5104,0,0,2.4921,2.4949,2.4951,2.4961,2.4982,2.4992,2.5006,2.5024,2.5033,2.5047,2.506,2.5082,2.5085,2.5096,2.5105,2.5115,2.5125,2.5117,2.5117,2.5118,2.5146,2.5144,2.5146,2.513,2.513,2.5131,2.5145,0,2.4927,2.495,2.4963,2.4982,2.4995,2.5007,2.5019,2.5034,2.5045,2.5059,2.5072,2.5088,2.509,2.5097,2.5108,2.5122,2.5131,2.5121,2.5143,2.5144,2.5138,2.5149,2.5146,2.5158,2.5147,2.5148,2.5148,0,2.4936,2.4951,2.4971,2.4993,2.4999,2.5009,2.5028,2.5041,2.5059,2.5067,2.5081,2.509,2.5108,2.5107,2.5132,2.5125,2.5136,2.5144,2.5145,2.5147,2.5146,2.5151,2.5163,2.5165,2.5151,2.5151,2.5151,0,2.4931,2.4956,2.4972,2.4981,2.5006,2.5013,2.5025,2.5043,2.5054,2.5071,2.5079,2.5098,2.5109,2.5124,2.514,2.5138,2.5164,2.5164,2.5172,2.5172,2.5176,2.5176,2.5189,2.5183,2.5183,2.5183,2.5183,0,2.4936,2.4948,2.4971,2.498,2.4996,2.5011,2.5026,2.5038,2.5055,2.5069,2.5081,2.5094,2.5114,2.513,2.5142,2.5162,2.5167,2.5175,2.5178,2.5174,2.5173,2.518,2.518,2.5184,2.5183,2.5183,2.5183,0,2.4932,2.4947,2.4966,2.4989,2.4995,2.5006,2.5026,2.5037,2.5051,2.5068,2.5073,2.5094,2.5114,2.5132,2.5158,2.5167,2.5188,2.5191,2.5181,2.5183,2.519,2.5189,2.5209,2.5213,2.5204,2.5204,2.5204,0,2.4934,2.4944,2.4968,2.4978,2.4989,2.5005,2.5017,2.5034,2.5046,2.5069,2.5078,2.5099,2.5117,2.5149,2.5168,2.5189,2.5193,2.5199,2.5196,2.5193,2.5194,2.5193,2.5195,2.5199,2.5199,2.5199,2.5199,0,2.4936,2.4944,2.4959,2.4979,2.4993,2.5009,2.5025,2.5034,2.5054,2.5067,2.5088,2.5102,2.513,2.5151,2.5175,2.5189,2.5198,2.52,2.5203,2.5198,2.5192,2.5196,2.5182,2.5199,2.5199,2.5199,2.5199,2.5199,2.4935,2.4945,2.4965,2.4983,2.4998,2.5014,2.5026,2.5042,2.5059,2.5082,2.5092,2.5114,2.5136,2.5168,2.5182,2.5201,2.5202,2.5206,2.5207,2.5208,2.5208,2.519,2.5205,2.5205,2.5205,2.5205,2.5205,0,2.4939,2.4953,2.4969,2.4992,2.5007,2.5015,2.5035,2.5047,2.5066,2.5085,2.5103,2.5128,2.515,2.5171,2.5195,2.5206,2.5211,2.5211,2.5211,2.5214,2.5205,2.52,2.5207,2.5207,2.5207,2.5207,2.5207,2.5207,2.4942,2.496,2.4971,2.4998,2.5012,2.5033,2.5044,2.5059,2.5075,2.5103,2.5121,2.5135,2.5156,2.5181,2.5203,2.5209,2.5217,2.5217,2.5224,2.5215,2.5214,2.5214,2.5209,2.5218,2.5218,2.5231,2.5231,2.5232]},{"header":{"parameterUnit":"m.s-1","parameterCategory":1,"la1":30.2991,"la2":30.254,"lo1":-89.0895,"lo2":-89.0444,"dy":0.0017,"dx":0.0017,"nx":28,"ny":28,"refTime":"2024-09-29T03:00:00:Z","depth":0,"parameterNumber":3,"parameterNumberName":"V-component_of_WINDS"},"data":[0,0,0,0,0,0,0,0,0,0,0,0,0,0,0,0,0,0,0,0,0,0,0,0,0,0,0,0,0,0,0,0,0,0,0,0,0,0,0,0,0,0,0,0,0,0,0,0,0,0,0,0,0,0,0,0,0,0,1.9253,1.9254,0,1.9378,1.938,1.9381,1.9435,1.9435,1.9435,1.9434,1.9561,1.9564,1.9568,0,0,0,0,0,0,0,0,0,0,0,0,0,1.9056,1.906,1.9253,1.9254,1.9256,1.9378,1.938,1.9381,1.9435,1.9435,1.9434,1.9434,1.956,1.9564,1.9568,0,0,0,0,0,0,0,0,0,0,0,0,0,1.9157,1.9061,1.9253,1.9298,1.9303,1.9378,1.938,1.9382,1.9435,1.9435,1.9434,1.9434,1.9558,1.9563,1.9569,1.9607,0,0,1.9585,1.9587,0,0,0,0,0,0,0,0,1.9152,1.9165,1.9289,1.9295,1.9301,1.9391,1.9357,1.9457,1.9435,1.9385,1.9434,1.9434,1.9504,1.9514,1.9538,1.9613,1.9619,1.9585,1.9589,1.9591,1.9592,0,0,0,0,0,0,0,1.9145,1.916,1.9302,1.9291,1.9298,1.931,1.9324,1.9376,1.9445,1.9389,1.9393,1.9408,1.9507,1.9533,1.9541,1.9621,1.9585,1.959,1.9593,1.9595,1.9731,1.9731,0,0,0,0,0,0,1.9131,1.9153,1.9298,1.9306,1.9224,1.9314,1.933,1.9362,1.9444,1.9456,1.9408,1.941,1.9524,1.9535,1.9546,1.9596,1.9591,1.9596,1.9599,1.973,1.9731,1.9731,0,0,0,0,0,0,1.9126,1.9143,1.9293,1.9231,1.9251,1.9318,1.9354,1.9365,1.939,1.9458,1.947,1.9421,1.9524,1.9539,1.9591,1.9601,1.9598,1.9603,1.973,1.9731,1.9731,1.9695,0,0,0,0,0,0,1.912,1.9141,1.9158,1.9231,1.9254,1.9338,1.9354,1.9367,1.94,1.9403,1.9474,1.9486,1.9525,1.9583,1.9596,1.9608,1.9607,1.9729,1.973,1.9731,1.9696,1.9695,1.9693,0,0,0,0,0,1.9113,1.9143,1.9158,1.9176,1.9277,1.9338,1.9351,1.9396,1.94,1.9417,1.946,1.9484,1.9597,1.9588,1.9604,1.9617,1.9729,1.973,1.9731,1.9696,1.9695,1.9693,0,0,0,0,0,0,1.907,1.9154,1.9172,1.9226,1.9274,1.9347,1.937,1.9393,1.9441,1.9443,1.9496,1.9511,1.9559,1.9593,1.9581,1.9657,1.9665,1.9669,1.9633,1.9632,1.9631,1.9622,1.9612,0,0,0,0,0,1.9066,1.911,1.9181,1.9222,1.9245,1.9303,1.9331,1.9361,1.9414,1.9434,1.9481,1.953,1.9577,1.9606,1.9653,1.97,1.9716,1.9717,1.9716,1.9714,1.9717,1.9743,1.9744,1.9734,1.9734,1.9734,0,0,1.906,1.9111,1.9136,1.9214,1.9256,1.9298,1.932,1.9365,1.9397,1.9441,1.9494,1.9529,1.9587,1.9636,1.9661,1.9667,1.9723,1.9715,1.9714,1.9718,1.9744,1.9745,1.9745,1.9735,1.9735,1.9735,0,0,1.907,1.9114,1.9152,1.9192,1.9254,1.9292,1.93,1.9369,1.9394,1.9448,1.9481,1.9519,1.9598,1.9638,1.9668,1.9689,1.9712,1.9702,1.9696,1.972,1.9721,1.9722,1.9728,1.973,1.9705,1.9705,1.9705,0,1.9055,1.9122,1.9169,1.9212,1.9244,1.9285,1.9323,1.936,1.9433,1.9454,1.9459,1.9558,1.96,1.9658,1.9663,1.9686,1.9697,1.9695,1.9717,1.9719,1.972,1.9727,1.9729,1.9703,1.9704,1.9704,1.9704,0,1.9099,1.9144,1.9167,1.9237,1.9272,1.9312,1.9363,1.9393,1.9419,1.9455,1.9507,1.9558,1.9615,1.9631,1.9657,1.9692,1.9694,1.9707,1.9716,1.9719,1.9726,1.9729,1.9701,1.9702,1.9702,1.9703,0,0,1.9088,1.918,1.9188,1.9219,1.9288,1.9324,1.9364,1.942,1.9443,1.9491,1.9526,1.959,1.9603,1.9637,1.9667,1.9688,1.97,1.97,1.9702,1.9697,1.974,1.9729,1.9731,1.9715,1.9716,1.9717,1.9735,0,1.9107,1.9183,1.9224,1.9282,1.9323,1.9361,1.9396,1.9441,1.9476,1.9515,1.9552,1.9597,1.961,1.9631,1.9653,1.9694,1.9709,1.9693,1.9747,1.9748,1.9731,1.9735,1.9725,1.974,1.9738,1.9738,1.9739,0,1.914,1.9187,1.9249,1.9311,1.933,1.9361,1.9414,1.9451,1.9502,1.9525,1.9561,1.9591,1.9634,1.9638,1.9696,1.9684,1.9708,1.9731,1.9732,1.974,1.9744,1.9742,1.9746,1.9748,1.9744,1.9743,1.9743,0,1.9124,1.9203,1.925,1.9275,1.9349,1.9369,1.9401,1.9452,1.9482,1.9527,1.9547,1.9596,1.9623,1.966,1.9702,1.9701,1.9755,1.9763,1.9774,1.9773,1.9785,1.9783,1.9792,1.98,1.98,1.98,1.9799,0,1.9142,1.9178,1.9243,1.9272,1.9312,1.9358,1.9397,1.9431,1.9475,1.951,1.9546,1.9577,1.963,1.9668,1.97,1.9742,1.9754,1.9773,1.9781,1.977,1.9768,1.9787,1.9787,1.98,1.98,1.98,1.98,0,1.9132,1.9177,1.923,1.9295,1.9312,1.9339,1.9394,1.9422,1.9457,1.95,1.9513,1.9567,1.9613,1.9658,1.9719,1.9741,1.9782,1.9794,1.9765,1.977,1.9778,1.9776,1.9799,1.9804,1.9808,1.9808,1.9808,0,1.914,1.9168,1.9235,1.9261,1.9292,1.9333,1.9363,1.9409,1.9439,1.9497,1.9518,1.9566,1.9607,1.9678,1.9723,1.9769,1.9782,1.9786,1.9789,1.9776,1.9781,1.9779,1.9781,1.9785,1.9785,1.9785,1.9784,0,1.9149,1.9169,1.9212,1.9261,1.9296,1.9337,1.938,1.9398,1.9452,1.9483,1.953,1.9562,1.9624,1.9671,1.9722,1.9753,1.9777,1.9783,1.9788,1.9777,1.9759,1.9768,1.9762,1.9783,1.9783,1.9783,1.9783,1.9783,1.9148,1.9174,1.9225,1.927,1.9306,1.9345,1.9374,1.9411,1.9452,1.9506,1.953,1.9577,1.9625,1.9696,1.9726,1.9763,1.9769,1.9776,1.9778,1.9779,1.9776,1.9753,1.9772,1.9772,1.9773,1.9773,1.9773,0,1.9158,1.9192,1.9233,1.9291,1.9326,1.9345,1.9392,1.942,1.9461,1.9504,1.9543,1.9596,1.9641,1.9688,1.9735,1.9755,1.9767,1.9766,1.9765,1.9771,1.9769,1.9759,1.9755,1.9755,1.9755,1.9755,1.9755,1.9755,1.9167,1.9212,1.9238,1.93,1.9334,1.938,1.9405,1.944,1.9474,1.9531,1.9569,1.9599,1.9643,1.9693,1.9735,1.9747,1.9763,1.9758,1.9774,1.977,1.9772,1.9773,1.9765,1.9761,1.9761,1.9774,1.9774,1.9774]}]]